カタログに戻る

STARLINK-31182

運用中通信VLEO
NORAD 59159·PAYLOAD·🇺🇸 United States

打ち上げ Mar 4, 2024 から Cape Canaveral Space Force Station

Loading…

次のパス (今後24時間)

TLE

最新Source: CelesTrak SupGP

元期: Sep 14, 2026, 21:39 UTC

1 59159C 24044H   26257.90256944 -.00035471  00000+0 -12852-2 0  2572
2 59159  43.0019 118.1054 0001270 271.8718 221.3476 15.27585218    12

AllMySatでSTARLINK-31182をリアルタイム追跡

Download on the App Store